Simultaneous Nadir Overpasses (SNOs) Predictions

Prediction of SNOs between GOES-16 and LANDSAT-8 Satellite Orbit:

Table of predicted SNOs for the next 14.0 days since TLE Epoch: 7/6/2019
Index Date Time (GOES-16) GOES-16 Lat,Lon LANDSAT-8 Lat,Lon Distance(km) Time Diff (sec)
1 07/06/2019 03:18:21 -0.00, -75.19 0.00, -76.19 111.39 80
2 07/08/2019 03:03:27 0.01, -75.20 0.44, -73.20 228.13 80
3 07/08/2019 15:27:23 -0.01, -75.21 0.64, -78.36 357.52 80
4 07/10/2019 15:15:12 -0.01, -75.22 0.01, -75.40 19.46 80
5 07/12/2019 15:00:21 -0.01, -75.24 -0.61, -72.44 319.34 80
6 07/13/2019 03:24:25 0.00, -75.25 -0.51, -77.63 270.41 80
7 07/15/2019 03:09:34 0.00, -75.28 0.12, -74.67 68.82 80
8 07/17/2019 02:57:24 0.01, -75.31 0.81, -71.72 408.47 80
9 07/17/2019 15:21:19 -0.01, -75.32 0.33, -76.87 176.60 80
10 07/19/2019 15:06:29 -0.02, -75.36 -0.35, -73.92 163.92 80




NCC Satellite Simultaneous Nadir Overpasses (SNOs) Prediction Service
